Time,TemperatureF,DewpointF,PressureIn,WindDirection,WindDirectionDegrees,WindSpeedMPH,WindSpeedGustMPH,Humidity,HourlyPrecipIn,Conditions,Clouds,dailyrainin,SoftwareType,DateUTC
2013-03-12 07:01:00,32.6,29.2,29.72,WSW,253,7.0,7.0,87,0.00,,,0.02,Wunderground v.1.15,2013-03-12 11:01:00,
2013-03-12 07:06:00,32.6,28.9,29.73,West,268,7.0,7.0,86,0.00,,,0.02,Wunderground v.1.15,2013-03-12 11:06:00,
2013-03-12 07:11:00,32.6,29.2,29.73,West,271,7.0,7.0,87,0.00,,,0.02,Wunderground v.1.15,2013-03-12 11:11:00,
2013-03-12 07:21:00,32.6,29.2,29.72,West,280,7.0,10.0,87,0.00,,,0.02,Wunderground v.1.15,2013-03-12 11:21:00,
2013-03-12 07:36:00,32.6,29.2,29.73,WSW,257,7.0,8.0,87,0.00,,,0.02,Wunderground v.1.15,2013-03-12 11:36:00,
2013-03-12 07:46:00,32.6,29.2,29.73,WNW,287,3.0,4.0,87,0.00,,,0.02,Wunderground v.1.15,2013-03-12 11:46:00,
2013-03-12 07:51:00,32.6,29.2,29.73,West,259,3.0,4.0,87,0.00,,,0.02,Wunderground v.1.15,2013-03-12 11:51:00,
2013-03-12 08:01:00,32.6,29.4,29.73,WNW,290,4.0,5.0,88,0.00,,,0.02,Wunderground v.1.15,2013-03-12 12:01:00,
2013-03-12 08:11:00,32.6,29.4,29.73,WSW,245,4.0,5.0,88,0.00,,,0.02,Wunderground v.1.15,2013-03-12 12:11:00,
2013-03-12 08:26:00,32.4,29.2,29.74,WSW,258,6.0,9.0,88,0.00,,,0.02,Wunderground v.1.15,2013-03-12 12:26:00,
2013-03-12 08:41:00,32.1,28.7,29.74,West,260,8.0,8.0,87,0.00,,,0.02,Wunderground v.1.15,2013-03-12 12:41:00,
2013-03-12 08:56:00,32.1,28.4,29.75,West,266,8.0,16.0,86,0.00,,,0.02,Wunderground v.1.15,2013-03-12 12:56:00,
2013-03-12 09:01:00,31.9,27.9,29.75,WNW,286,10.0,10.0,85,0.00,,,0.02,Wunderground v.1.15,2013-03-12 13:01:00,
2013-03-12 09:11:00,31.7,27.7,29.76,WNW,286,9.0,9.0,85,0.00,,,0.02,Wunderground v.1.15,2013-03-12 13:11:00,
2013-03-12 09:21:00,31.6,27.3,29.77,WSW,244,8.0,10.0,84,0.00,,,0.02,Wunderground v.1.15,2013-03-12 13:21:00,
2013-03-12 09:26:00,31.6,27.3,29.76,WSW,248,9.0,10.0,84,0.00,,,0.02,Wunderground v.1.15,2013-03-12 13:26:00,
2013-03-12 09:36:00,31.7,27.1,29.77,SW,229,5.0,6.0,83,0.00,,,0.02,Wunderground v.1.15,2013-03-12 13:36:00,
2013-03-12 09:46:00,31.6,27.0,29.77,WSW,252,7.0,9.0,83,0.00,,,0.02,Wunderground v.1.15,2013-03-12 13:46:00,
2013-03-12 09:56:00,31.5,26.6,29.77,WNW,292,6.0,7.0,82,0.00,,,0.02,Wunderground v.1.15,2013-03-12 13:56:00,
2013-03-12 10:01:00,31.6,26.7,29.77,WNW,284,6.0,6.0,82,0.00,,,0.02,Wunderground v.1.15,2013-03-12 14:01:00,
2013-03-12 10:06:00,31.5,26.6,29.78,West,275,6.0,6.0,82,0.00,,,0.02,Wunderground v.1.15,2013-03-12 14:06:00,
2013-03-12 10:16:00,31.6,26.4,29.78,WSW,237,6.0,7.0,81,0.00,,,0.02,Wunderground v.1.15,2013-03-12 14:16:00,
2013-03-12 10:21:00,31.7,26.5,29.78,West,261,6.0,8.0,81,0.00,,,0.02,Wunderground v.1.15,2013-03-12 14:21:00,
2013-03-12 10:31:00,31.8,26.3,29.78,West,265,7.0,7.0,80,0.00,,,0.02,Wunderground v.1.15,2013-03-12 14:31:00,
2013-03-12 10:36:00,31.8,26.0,29.78,WNW,284,6.0,10.0,79,0.00,,,0.02,Wunderground v.1.15,2013-03-12 14:36:00,
2013-03-12 10:46:00,32.0,26.2,29.78,WSW,244,6.0,8.0,79,0.00,,,0.02,Wunderground v.1.15,2013-03-12 14:46:00,
2013-03-12 10:51:00,32.0,25.9,29.78,West,279,6.0,6.0,78,0.00,,,0.02,Wunderground v.1.15,2013-03-12 14:51:00,
2013-03-12 11:06:00,32.2,26.7,29.79,WNW,282,6.0,7.0,80,0.00,,,0.02,Wunderground v.1.15,2013-03-12 15:06:00,
2013-03-12 11:16:00,31.9,25.8,29.79,West,272,7.0,13.0,78,0.00,,,0.02,Wunderground v.1.15,2013-03-12 15:16:00,
2013-03-12 11:21:00,31.7,25.9,29.78,West,267,7.0,7.0,79,0.00,,,0.02,Wunderground v.1.15,2013-03-12 15:21:00,
2013-03-12 11:36:00,31.8,26.0,29.79,WSW,242,7.0,7.0,79,0.00,,,0.02,Wunderground v.1.15,2013-03-12 15:36:00,
2013-03-12 11:41:00,31.9,26.7,29.79,WSW,251,6.0,6.0,81,0.00,,,0.02,Wunderground v.1.15,2013-03-12 15:41:00,
2013-03-12 11:46:00,32.0,26.8,29.79,West,266,6.0,6.0,81,0.00,,,0.02,Wunderground v.1.15,2013-03-12 15:46:00,
2013-03-12 12:01:00,31.9,27.3,29.80,West,281,5.0,9.0,83,0.00,,,0.02,Wunderground v.1.15,2013-03-12 16:01:00,
2013-03-12 12:06:00,31.9,27.6,29.80,WSW,250,6.0,9.0,84,0.00,,,0.02,Wunderground v.1.15,2013-03-12 16:06:00,
2013-03-12 12:16:00,31.7,27.7,29.80,West,261,5.0,6.0,85,0.00,,,0.02,Wunderground v.1.15,2013-03-12 16:16:00,
2013-03-12 12:21:00,31.9,28.2,29.80,West,268,4.0,4.0,86,0.00,,,0.02,Wunderground v.1.15,2013-03-12 16:21:00,
2013-03-12 12:26:00,31.8,27.5,29.80,WSW,237,5.0,5.0,84,0.00,,,0.02,Wunderground v.1.15,2013-03-12 16:26:00,
2013-03-12 12:36:00,32.1,28.1,29.80,WSW,246,4.0,9.0,85,0.00,,,0.02,Wunderground v.1.15,2013-03-12 16:36:00,
2013-03-12 12:56:00,32.1,27.2,29.81,SSW,213,6.0,10.0,82,0.00,,,0.02,Wunderground v.1.15,2013-03-12 16:56:00,
2013-03-12 14:36:00,34.6,26.8,29.80,West,272,4.0,5.0,73,0.00,,,0.02,Wunderground v.1.15,2013-03-12 18:36:00,
2013-03-12 14:41:00,34.2,26.4,29.81,WSW,251,5.0,7.0,73,0.00,,,0.02,Wunderground v.1.15,2013-03-12 18:41:00,
2013-03-12 14:46:00,33.9,26.8,29.80,WNW,289,6.0,7.0,75,0.00,,,0.02,Wunderground v.1.15,2013-03-12 18:46:00,
2013-03-12 14:56:00,33.5,26.7,29.80,West,265,5.0,5.0,76,0.00,,,0.02,Wunderground v.1.15,2013-03-12 18:56:00,
2013-03-12 15:01:00,33.5,27.1,29.80,West,275,5.0,5.0,77,0.00,,,0.02,Wunderground v.1.15,2013-03-12 19:01:00,
2013-03-12 15:11:00,33.4,27.3,29.80,WSW,250,7.0,8.0,78,0.00,,,0.02,Wunderground v.1.15,2013-03-12 19:11:00,
2013-03-12 15:16:00,33.5,27.4,29.81,WNW,283,6.0,8.0,78,0.00,,,0.02,Wunderground v.1.15,2013-03-12 19:16:00,
2013-03-12 15:21:00,33.6,27.2,29.80,West,274,5.0,7.0,77,0.00,,,0.02,Wunderground v.1.15,2013-03-12 19:21:00,
2013-03-12 15:36:00,33.3,27.5,29.80,WNW,282,8.0,11.0,79,0.00,,,0.02,Wunderground v.1.15,2013-03-12 19:36:00,
2013-03-12 15:46:00,33.1,27.6,29.80,West,259,7.0,10.0,80,0.00,,,0.02,Wunderground v.1.15,2013-03-12 19:46:00,
2013-03-12 15:51:00,33.2,28.0,29.80,West,281,6.0,6.0,81,0.00,,,0.02,Wunderground v.1.15,2013-03-12 19:51:00,
2013-03-12 16:06:00,33.0,28.1,29.80,West,278,9.0,9.0,82,0.00,,,0.02,Wunderground v.1.15,2013-03-12 20:06:00,
2013-03-12 16:11:00,32.8,27.9,29.80,West,269,8.0,8.0,82,0.00,,,0.02,Wunderground v.1.15,2013-03-12 20:11:00,
2013-03-12 16:31:00,32.3,28.6,29.81,WSW,244,6.0,6.0,86,0.00,,,0.02,Wunderground v.1.15,2013-03-12 20:31:00,
2013-03-12 16:40:00,32.9,29.2,29.81,WNW,288,3.0,3.0,86,0.00,,,0.02,Wunderground v.1.15,2013-03-12 20:40:00,
2013-03-12 16:50:00,32.9,28.6,29.81,West,259,4.0,6.0,84,0.00,,,0.02,Wunderground v.1.15,2013-03-12 20:50:00,
2013-03-12 16:55:00,32.9,28.3,29.81,West,277,4.0,6.0,83,0.00,,,0.02,Wunderground v.1.15,2013-03-12 20:55:00,
2013-03-12 17:01:00,32.9,28.6,29.81,SW,225,5.0,5.0,84,0.00,,,0.02,Wunderground v.1.15,2013-03-12 21:01:00,
2013-03-12 17:11:00,32.7,28.1,29.81,WSW,250,5.0,5.0,83,0.00,,,0.02,Wunderground v.1.15,2013-03-12 21:11:00,
2013-03-12 17:20:00,32.8,28.2,29.82,West,269,5.0,5.0,83,0.00,,,0.02,Wunderground v.1.15,2013-03-12 21:20:00,
2013-03-12 17:31:00,32.9,27.7,29.82,SW,226,6.0,6.0,81,0.00,,,0.02,Wunderground v.1.15,2013-03-12 21:31:00,
2013-03-12 17:40:00,32.4,27.8,29.82,West,278,6.0,7.0,83,0.00,,,0.02,Wunderground v.1.15,2013-03-12 21:40:00,
2013-03-12 17:46:00,32.0,27.7,29.82,West,269,7.0,8.0,84,0.00,,,0.02,Wunderground v.1.15,2013-03-12 21:46:00,
2013-03-12 17:55:00,31.7,28.0,29.83,SW,234,5.0,8.0,86,0.00,,,0.02,Wunderground v.1.15,2013-03-12 21:55:00,
2013-03-12 18:00:00,31.8,28.1,29.83,West,269,4.0,5.0,86,0.00,,,0.02,Wunderground v.1.15,2013-03-12 22:00:00,
2013-03-12 18:05:00,31.8,28.1,29.83,West,266,4.0,5.0,86,0.00,,,0.02,Wunderground v.1.15,2013-03-12 22:05:00,
2013-03-12 18:10:00,31.8,27.8,29.82,West,267,5.0,5.0,85,0.00,,,0.02,Wunderground v.1.15,2013-03-12 22:10:00,
2013-03-12 18:16:00,31.8,27.8,29.83,WSW,240,4.0,9.0,85,0.00,,,0.02,Wunderground v.1.15,2013-03-12 22:16:00,
2013-03-12 18:30:00,32.0,27.4,29.83,WSW,251,4.0,4.0,83,0.00,,,0.02,Wunderground v.1.15,2013-03-12 22:30:00,
2013-03-12 18:40:00,32.1,26.6,29.83,WSW,240,4.0,7.0,80,0.00,,,0.02,Wunderground v.1.15,2013-03-12 22:40:00,
2013-03-12 18:51:00,32.3,26.5,29.83,West,268,4.0,4.0,79,0.00,,,0.02,Wunderground v.1.15,2013-03-12 22:51:00,
2013-03-12 19:01:00,32.3,26.5,29.83,WSW,251,3.0,3.0,79,0.00,,,0.02,Wunderground v.1.15,2013-03-12 23:01:00,
2013-03-12 19:16:00,32.4,26.3,29.84,WSW,239,3.0,3.0,78,0.00,,,0.02,Wunderground v.1.15,2013-03-12 23:16:00,
2013-03-12 19:21:00,32.3,26.2,29.84,WSW,257,4.0,4.0,78,0.00,,,0.02,Wunderground v.1.15,2013-03-12 23:21:00,
2013-03-12 19:30:00,32.3,26.5,29.84,NW,308,3.0,4.0,79,0.00,,,0.02,Wunderground v.1.15,2013-03-12 23:30:00,
2013-03-12 19:41:00,32.1,26.0,29.84,WSW,256,4.0,4.0,78,0.00,,,0.02,Wunderground v.1.15,2013-03-12 23:41:00,
2013-03-12 19:51:00,32.1,26.0,29.85,WSW,255,4.0,4.0,78,0.00,,,0.02,Wunderground v.1.15,2013-03-12 23:51:00,
2013-03-12 19:56:00,32.1,26.6,29.85,West,265,3.0,4.0,80,0.00,,,0.02,Wunderground v.1.15,2013-03-12 23:56:00,
2013-03-12 20:05:00,31.8,26.9,29.85,West,267,3.0,4.0,82,0.00,,,0.02,Wunderground v.1.15,2013-03-13 00:05:00,
2013-03-12 20:11:00,31.5,26.9,29.85,West,277,4.0,4.0,83,0.00,,,0.02,Wunderground v.1.15,2013-03-13 00:11:00,
2013-03-12 20:56:00,31.1,25.7,29.86,West,271,6.0,6.0,80,0.00,,,0.02,Wunderground v.1.15,2013-03-13 00:56:00,
2013-03-12 21:06:00,31.0,25.6,29.86,West,273,5.0,5.0,80,0.00,,,0.02,Wunderground v.1.15,2013-03-13 01:06:00,
2013-03-12 21:15:00,30.9,25.5,29.86,West,266,4.0,4.0,80,0.00,,,0.02,Wunderground v.1.15,2013-03-13 01:15:00,
2013-03-12 21:20:00,30.8,25.4,29.86,WNW,288,4.0,5.0,80,0.00,,,0.02,Wunderground v.1.15,2013-03-13 01:20:00,
2013-03-12 21:30:00,30.8,25.4,29.86,WSW,237,4.0,4.0,80,0.00,,,0.02,Wunderground v.1.15,2013-03-13 01:30:00,
2013-03-12 21:40:00,30.6,25.5,29.86,West,265,3.0,3.0,81,0.00,,,0.02,Wunderground v.1.15,2013-03-13 01:40:00,
2013-03-12 21:45:00,30.6,25.5,29.86,WSW,252,3.0,3.0,81,0.00,,,0.02,Wunderground v.1.15,2013-03-13 01:45:00,
2013-03-12 21:51:00,30.5,25.4,29.86,West,279,3.0,3.0,81,0.00,,,0.02,Wunderground v.1.15,2013-03-13 01:51:00,
2013-03-12 22:01:00,30.3,25.2,29.86,WSW,239,4.0,4.0,81,0.00,,,0.02,Wunderground v.1.15,2013-03-13 02:01:00,
2013-03-12 22:10:00,30.2,25.1,29.86,West,268,3.0,3.0,81,0.00,,,0.02,Wunderground v.1.15,2013-03-13 02:10:00,
2013-03-12 22:15:00,30.2,25.1,29.86,West,265,4.0,4.0,81,0.00,,,0.02,Wunderground v.1.15,2013-03-13 02:15:00,
2013-03-12 22:25:00,30.1,25.3,29.86,WNW,293,3.0,5.0,82,0.00,,,0.02,Wunderground v.1.15,2013-03-13 02:25:00,
2013-03-12 22:31:00,30.1,25.3,29.86,WNW,284,4.0,4.0,82,0.00,,,0.02,Wunderground v.1.15,2013-03-13 02:31:00,
2013-03-12 22:36:00,30.0,25.2,29.86,West,272,4.0,4.0,82,0.00,,,0.02,Wunderground v.1.15,2013-03-13 02:36:00,
2013-03-12 22:50:00,29.8,25.3,29.86,WSW,250,3.0,3.0,83,0.00,,,0.02,Wunderground v.1.15,2013-03-13 02:50:00,
2013-03-12 23:01:00,29.7,25.2,29.86,West,276,3.0,3.0,83,0.00,,,0.02,Wunderground v.1.15,2013-03-13 03:01:00,
2013-03-12 23:11:00,29.6,25.4,29.86,WSW,248,3.0,3.0,84,0.00,,,0.02,Wunderground v.1.15,2013-03-13 03:11:00,
2013-03-12 23:16:00,29.6,25.4,29.86,WSW,256,2.0,3.0,84,0.00,,,0.02,Wunderground v.1.15,2013-03-13 03:16:00,
2013-03-12 23:26:00,29.6,25.4,29.86,WSW,253,4.0,4.0,84,0.00,,,0.02,Wunderground v.1.15,2013-03-13 03:26:00,
2013-03-12 23:41:00,29.6,25.4,29.86,WSW,243,2.0,3.0,84,0.00,,,0.02,Wunderground v.1.15,2013-03-13 03:41:00,
2013-03-12 23:51:00,29.6,25.4,29.86,West,279,4.0,10.0,84,0.00,,,0.02,Wunderground v.1.15,2013-03-13 03:51:00,
2013-03-12 23:56:00,29.6,25.4,29.86,West,270,6.0,10.0,84,0.00,,,0.02,Wunderground v.1.15,2013-03-13 03:56:00,